Weather History for KFRI - August, 2013

Change the Weather History Date:

Monday, August 19, 2013

  Actual Average (KMHK) Record (KMHK)
Temperature  
Mean Temperature 75 °F 77 °F  
Max Temperature 86 °F 89 °F 105 °F (2003)
Min Temperature 64 °F 65 °F 48 °F (2001)
Degree Days  
Heating Degree Days 0 0  
Month to date heating degree days 0  
Since 1 June heating degree days 12  
Since 1 July heating degree days 1  
Cooling Degree Days 10 12  
Month to date cooling degree days 251  
Year to date cooling degree days 1057  
Since 1 June cooling degree days 957  
Growing Degree Days 25 (Base 50)    
Moisture  
Dew Point 66 °F    
Average Humidity 71    
Maximum Humidity 98    
Minimum Humidity 51    
Precipitation  
Precipitation 0.00 in 0.16 in 1.48 in (2006)
Month to date precipitation 2.36  
Year to date precipitation 22.62  
Sea Level Pressure  
Sea Level Pressure 30.02 in    
Wind  
Wind Speed 7 mph (SSE)    
Max Wind Speed 16 mph    
Max Gust Speed 17 mph    
Visibility 10 miles    
Events      
T = Trace of Precipitation, MM = Missing Value Source: NWS Daily Summary

Daily Weather History Graph

Daily Weather History Graph

Search for Another Location

Airport or City:

Trip Planner

Search our weather history database for the weather conditions in past years. The results will help you decide how hot, cold, wet, or windy it might be!

Date:

Astronomy

Aug. 19, 2013 Rise Set
Actual Time 6:44 AM CDT 8:16 PM CDT
Civil Twilight 6:16 AM CDT 8:44 PM CDT
Nautical Twilight 5:42 AM CDT 9:18 PM CDT
Astronomical Twilight 5:06 AM CDT 9:54 PM CDT
Moon 7:08 PM CDT (8/19) 5:05 AM CDT (8/19)
Length of Visible Light 14h 28m
Length of Day
13h 31m
Waxing Gibbous, 97% of the Moon is Illuminated
Aug 19
Waxing Gibbous
Aug 20
Full
Aug 28
Last Quarter
Sep 5
New
Sep 12
First Quarter

Hourly Weather History & Observations

Time (CDT) Temp. Heat Index Dew Point Humidity Pressure Visibility Wind Dir Wind Speed Gust Speed Precip Events Conditions
12:58 AM 67.6 °F - 64.2 °F 89% 30.08 in 10.0 mi Variable 1.2 mph - N/A   Clear
1:58 AM 67.3 °F - 63.1 °F 87% 30.06 in 10.0 mi SE 10.4 mph - N/A   Clear
2:58 AM 68.5 °F - 62.8 °F 82% 30.04 in 10.0 mi SW 4.6 mph - N/A   Clear
3:58 AM 67.5 °F - 62.6 °F 84% 30.03 in 10.0 mi Variable 1.2 mph - N/A   Clear
4:58 AM 66.6 °F - 62.6 °F 87% 30.04 in 10.0 mi SSE 4.6 mph - N/A   Partly Cloudy
5:58 AM 66.4 °F - 63.0 °F 89% 30.04 in 10.0 mi East 1.2 mph - N/A   Partly Cloudy
6:58 AM 64.9 °F - 63.7 °F 96% 30.05 in 10.0 mi NNE 1.2 mph - N/A   Clear
7:58 AM 66.2 °F - 65.7 °F 98% 30.07 in 10.0 mi NE 2.3 mph - N/A   Partly Cloudy
8:58 AM 71.6 °F - 64.6 °F 78% 30.06 in 10.0 mi Variable 2.3 mph - N/A   Clear
9:58 AM 75.7 °F - 65.3 °F 70% 30.06 in 10.0 mi SSE 11.5 mph - N/A   Clear
10:58 AM 79.3 °F - 65.5 °F 62% 30.06 in 10.0 mi SSE 12.7 mph - N/A   Clear
11:56 AM 80.6 °F 82.7 °F 66.2 °F 61% 30.08 in 10.0 mi South 10.4 mph - N/A   Clear
12:56 PM 82.4 °F 83.9 °F 64.4 °F 54% 30.06 in 10.0 mi South 12.7 mph - N/A   Clear
1:58 PM 85.1 °F 86.9 °F 65.3 °F 51% 30.02 in 10.0 mi South 13.8 mph - N/A   Clear
2:56 PM 86.0 °F 88.2 °F 66.2 °F 51% 30.04 in 10.0 mi SSW 12.7 mph - N/A   Clear
2:58 PM 86.4 °F 89.0 °F 67.1 °F 52% 30.01 in 10.0 mi South 13.8 mph - N/A   Clear
3:58 PM 86.5 °F 89.0 °F 66.4 °F 51% 29.98 in 10.0 mi South 16.1 mph - N/A   Clear
4:58 PM 86.7 °F 90.3 °F 68.0 °F 54% 29.97 in 10.0 mi South 12.7 mph 17.3 mph N/A   Clear
5:58 PM 85.5 °F 87.9 °F 66.7 °F 53% 29.95 in 10.0 mi South 12.7 mph - N/A   Clear
6:58 PM 83.8 °F 86.7 °F 67.5 °F 58% 29.95 in 10.0 mi South 8.1 mph - N/A   Clear
7:58 PM 81.0 °F 83.4 °F 67.1 °F 63% 29.96 in 10.0 mi SSE 8.1 mph - N/A   Clear
8:58 PM 78.3 °F - 66.6 °F 67% 29.95 in 10.0 mi SSE 8.1 mph - N/A   Clear
9:58 PM 76.3 °F - 67.1 °F 73% 29.97 in 10.0 mi SSE 10.4 mph - N/A   Clear
10:13 PM 75.2 °F - 68.0 °F 78% 30.00 in 10.0 mi SSE 10.4 mph - N/A   Light Drizzle
10:20 PM 75.2 °F - 68.0 °F 78% 30.00 in 10.0 mi SSE 11.5 mph - N/A   Clear
10:58 PM 74.8 °F - 68.0 °F 79% 29.98 in 10.0 mi SSE 12.7 mph - 0.00 in   Clear
11:58 PM 73.9 °F - 67.8 °F 81% 30.01 in 10.0 mi SSE 10.4 mph - N/A   Clear